Погода в Октябрьском

Россия / Ивановская область     57°08′04″N   40°20′08″E
темп.,
°C
ветер,
м/с
пор.,
м/с
влажн.,
%
обл.,
%
осадки,
мм/ч
давл.,
гПа
погр.,
м
21 апреля, ср
ср2100:00+4в61482100 0.4 10171027
03:00+2в71595100 1.0 1013809
06:00+1в81896100 2.6 1009846
09:00+3вюв91894100 5.3 1005881
12:00+6вюв91893100 2.3 10021371
15:00+3ю91496100 3.7 1004827
18:00+3ююз61090100 0.1 1007909
21:00+3ююз4991100 0.2 1010594
22 апреля, чт
чт2200:00+3юз4893100 0.1 1011470
03:00+3ююз3896100 0.1 1013310
06:00+3ю3895100 0.0 1014263
09:00+5ю5885100 0.0 1015375
12:00+9ююз5664100 0.0 10161101
15:00+10ююз576070 0.2 10161471
18:00+10ю58695 0.1 1017796
21:00+6ю512855 0.1 1018313
23 апреля, пт
пт2300:00+4ююв4119112 0.0 1018240
03:00+4ююв4129116 0.0 1018251
06:00+5ююв513915 0.0 1017324
09:00+10ю6107652 0.0 1017497
12:00+15ю686066 0.0 10171113
15:00+16ю685636 1.4 10161484
18:00+14ю486072 0.8 1016349
21:00+9ююв412835 0.8 1016288
24 апреля, сб
сб2400:00+8ююв4128617 0.0 1015275
03:00+7юв512875 0.0 1013270
06:00+8юв61484100 0.0 1012400
09:00+12юв7137096 0.1 10101029
12:00+14ююв9135538 0.3 10081896
15:00+13юв9116593 0.9 10071415
18:00+4з7994100 1.4 1007489
21:00+2з4999100 7.8 1008402
25 апреля, вс
вс2500:00+4з4894100 3.9 1008630
03:00+3зюз2696100 4.0 1008307
06:00+3юз2693100 0.0 1008224
09:00+6зюз567682 0.0 1009742
12:00+8зюз675789 0.4 10101714
15:00+8зюз775464 0.8 10111667
18:00+7з58585 0.1 10121352
21:00+3з37800 0.1 1013157